Regional Weather Roundup
Issued by NWS

Home | Current Version | Previous Version | Graphics & Text | Print | Product List | Glossary On
Versions: 1 2 3 4 5 6 7 8 9 10 11 12 13 14 15 16 17 18 19 20 21 22 23 24 25 26 27 28 29 30 31 32 33 34 35 36 37 38 39 40 41 42 43 44 45 46 47 48 49 50
000
ASUS43 KLOT 231203
RWRIL

ILLINOIS REGIONAL WEATHER ROUNDUP
NATIONAL WEATHER SERVICE CHICAGO/ROMEOVILLE IL
700 AM CDT WED AUG 23 2017

NOTE: "FAIR" INDICATES FEW OR NO CLOUDS BELOW 12,000 FEET WITH NO
SIGNIFICANT WEATHER AND/OR OBSTRUCTIONS TO VISIBILITY.

* THESE STATIONS ARE NOT UNDER NWS QUALITY CONTROL. THEY ALSO MAY NOT
  REPORT WEATHER SUCH AS PRECIPITATION OR FOG.

ILZ001-002-007-009-015-016-024-231300-
NORTHWEST ILLINOIS

CITY           SKY/WX    TMP DP  RH WIND       PRES   REMARKS
MOLINE         CLEAR     53  51  93 CALM      30.09R
6HR MIN TEMP:  52; 6HR MAX TEMP:  59;

STERLING*      CLEAR     54  52  93 SW3       30.08R
SAVANNA*       PTCLDY    55  51  84 NW5       30.08R
$$

ILZ003-004-008-010-011-017-018-231300-
NORTH CENTRAL ILLINOIS

CITY           SKY/WX    TMP DP  RH WIND       PRES   REMARKS
ROCKFORD       PTCLDY    55  50  83 CALM      30.07R
6HR MIN TEMP:  53; 6HR MAX TEMP:  58;

FREEPORT*      CLEAR     53  50  87 W5        30.09R
ROCHELLE*      CLEAR     48  47  99 CALM      30.07R
DE KALB*       PTCLDY    55  51  86 W6        30.06R
$$

ILZ005-006-012>014-019>023-231300-
NORTHEAST ILLINOIS

CITY           SKY/WX    TMP DP  RH WIND       PRES   REMARKS
CHICAGO-OHARE  CLEAR     61  50  67 W9        30.03R
6HR MIN TEMP:  60; 6HR MAX TEMP:  64;

CHICAGO-MIDWAY CLEAR     61  52  72 NW6       30.03R
6HR MIN TEMP:  60; 6HR MAX TEMP:  65;

AURORA         PTCLDY    52  51  97 NW5       30.05S
6HR MIN TEMP:  50; 6HR MAX TEMP:  55;

LANSING*       CLEAR     57  51  79 W5        30.04R
JOLIET*        CLEAR     59  54  83 CALM      30.05S
WAUKEGAN       CLEAR     58  52  80 CALM      30.02R
6HR MIN TEMP:  55; 6HR MAX TEMP:  62;

DUPAGE AIRPORT PTCLDY    57  52  83 NW6       30.04R
6HR MIN TEMP:  54; 6HR MAX TEMP:  60;

KANKAKEE*      CLEAR     54  52  95 W5        30.06R
WHEELING       CLEAR     59  53  80 NW3       30.04R
6HR MIN TEMP:  57; 6HR MAX TEMP:  63;

MORRIS*        CLEAR     54  51  92 NW3       30.05R
NORTHERLY ISL    N/A     64  50  60 W10         N/A
$$

LMZ740>746-231300-
SOUTHERN LAKE MICHIGAN

STATION/POSITION SKY/WX   TEMP    WIND        PRES    VSBY  WAVE
                          AIR SEA DIR/SP/G                  HT/PER
                          (F)     (DEG/KT/KT) (MB)    (MI)  (FT/S)
SOUTHERN BUOY              67 71  330/ 17/ 21 1014.7          4/ 4
WILMETTE HARBOR            65 73  290/ 14/ 17   N/A           2/ 3
HARRISON CRIB              65     280/ 14/ 17   N/A
CALUMET HARBOR             61     260/  3/  5 1016.1R
BURNS HARBOR               69     280/ 11/ 13 1016.9R
MICHIGAN CITY              69     290/ 15/ 17   N/A
MICHIGAN CITY 6N           69 73  310/ 14/ 17   N/A           5/ 6
ST. JOSEPH                 70 73  330/ 16/ 19 1015.8R         5/ 6
$$

ILZ025>027-034>036-040-047-049-050-058-095>099-231300-
WEST-CENTRAL ILLINOIS

CITY           SKY/WX    TMP DP  RH WIND       PRES   REMARKS
QUINCY         CLEAR     55  52  89 NW5       30.11R
GALESBURG*     CLEAR     52  51  99 W5        30.10S
MACOMB*        CLEAR     53  52  97 W5        30.13R
$$

ILZ028>032-037-038-041>044-048-051>054-059>061-231300-
CENTRAL ILLINOIS

CITY           SKY/WX    TMP DP  RH WIND       PRES   REMARKS
BLOOMINGTON    CLEAR     56  52  86 NW7       30.09R
DECATUR        CLEAR     59  53  80 NW9       30.08R
PEORIA         CLEAR     56  53  90 NW3       30.09R
6HR MIN TEMP:  56; 6HR MAX TEMP:  61;

LACON*         CLEAR     52  52  99 CALM      30.07S
LINCOLN*       CLEAR     57  55  93 CALM      30.08S
SPRINGFIELD    CLEAR     57  55  93 NW7       30.09R
6HR MIN TEMP:  55; 6HR MAX TEMP:  61;

TAYLORVILLE    NOT AVBL
$$

ILZ033-039-045-046-055>057-062-063-231300-
EAST-CENTRAL ILLINOIS

CITY           SKY/WX    TMP DP  RH WIND       PRES   REMARKS
CHAMPAIGN      CLEAR     55  52  89 NW5       30.07R
RANTOUL*       PTCLDY    58  55  89 NW6       30.07R
MATTOON        CLEAR     56  55  97 W3        30.06R
PARIS*         PTCLDY    54  53  98 NW5       30.07R
$$

ILZ079-100>102-231300-
SOUTHWEST ILLINOIS

CITY           SKY/WX    TMP DP  RH WIND       PRES   REMARKS
ALTON          CLEAR     55  55 100 CALM      30.09S
BELLEVILLE     CLEAR     59  54  85 NW5       30.09R
CAHOKIA*       CLEAR     58  55  90 CALM      30.09R
SPARTA*        CLEAR     58  56  94 CALM      30.09S
$$

ILZ064>066-069>071-074>076-080>082-084>086-088>090-092>094-231300-
SOUTH-CENTRAL ILLINOIS

CITY           SKY/WX    TMP DP  RH WIND       PRES   REMARKS
CARBONDALE     CLEAR     59  59 100 NW3       30.08R
6HR MIN TEMP:  58; 6HR MAX TEMP:  66;

CAIRO*         PTCLDY    63  61  93 CALM      30.07R
EFFINGHAM*     CLEAR     56  56 100 W3        30.09R
MARION         PTCLDY    61  61 100 N6        30.08R
MT. VERNON       N/A     56  55  97 CALM      30.08R
CENTRALIA*     CLEAR     57  56  97 CALM      30.07R
SALEM*         CLEAR     57  55  92 CALM      30.08R
METROPOLIS*    CLEAR     63  61  93 CALM      30.07R
$$

ILZ067-068-072-073-078-083-087-091-231300-
SOUTHEAST ILLINOIS

CITY           SKY/WX    TMP DP  RH WIND       PRES   REMARKS
LAWRENCEVILLE  CLEAR     59  57  93 CALM      30.05R
FLORA*         CLEAR     60  57  90 NW6       30.07R
FAIRFIELD*     CLEAR     60  57  90 CALM      30.06R
HARRISBURG*    CLEAR     59  58  96 CALM      30.07R
ROBINSON*      CLEAR     54  54 100 CALM      30.06S
CARMI*         CLEAR     58  58  98 CALM      30.05S
$$

ABBREVIATIONS USED IN REMARKS
   TC - TEMPERATURE IN CELSIUS
  WCI - WIND CHILL INDEX
   HX - HEAT INDEX
  VSB - VISIBILITY
$$





USA.gov is the U.S. government's official web portal to all federal, state and local government web resources and services.